Regional Weather Roundup
Issued by NWS

Home | Current Version | Previous Version | Graphics & Text | Print | Product List | Glossary On
Versions: 1 2 3 4 5 6 7 8 9 10 11 12 13 14 15 16 17 18 19 20 21 22 23 24 25 26 27 28 29 30 31 32 33 34 35 36 37 38 39 40 41 42 43 44 45 46 47 48 49 50
000
ASUS43 KMPX 281110
RWRMN
WEATHER ROUNDUP FOR MINNESOTA
NATIONAL WEATHER SERVICE TWIN CITIES/CHANHASSEN MN
600 AM CDT THU MAY 28 2015


NOTE: "FAIR" INDICATES FEW OR NO CLOUDS BELOW 12,000 FEET WITH NO
SIGNIFICANT WEATHER AND/OR OBSTRUCTIONS TO VISIBILITY. N/A MEANS
CURRENT SKY AND/OR WEATHER CONDITIONS ARE NOT AVAILABLE.

MNZ060>063-068>070-281200-
   Twin Cities Metro

CITY           SKY/WX    TMP DP  RH WIND       PRES   REMARKS
TWIN CITIES    PTCLDY    63  54  72 CALM      30.05R
ST PAUL        CLEAR     60  57  89 CALM      30.06R
CRYSTAL        CLEAR     60  54  80 S5        30.03R
BLAINE         CLEAR     61  57  88 S7        30.04S
LAKEVILLE      CLEAR     63  54  72 S3        30.06S
EDEN PRAIRIE   CLEAR     61  55  81 S7        30.04R
SOUTH ST PAUL  CLEAR     61  57  85 SE3       30.06R
LAKE ELMO      FAIR      55  55 100 CALM      30.07R
$$
MNZ001>005-007-008-013>017-022>024-027-028-281200-
   Northwest Minnesota

CITY           SKY/WX    TMP DP  RH WIND       PRES   REMARKS
BEMIDJI        MOCLDY    57  52  82 SE8       29.98S
HALLOCK        LGT RAIN  55  54  94 E3        29.97S
ROSEAU         CLOUDY    54  48  82 E6        29.96S
WARROAD        LGT RAIN  55  52  88 E6        29.97F
THIEF RVR FALL CLOUDY    59  54  82 W5        29.99R
CROOKSTON      LGT RAIN  59  55  88 NE5       29.97F
FOSSTON        CLOUDY    61  52  72 SW8       29.99R
DETROIT LAKES  CLOUDY    63  54  72 CALM      29.97F
MOORHEAD       CLOUDY    63  57  82 N5        29.94F
PARK RAPIDS    CLOUDY    63  50  62 SE7       29.97F
MAHNOMEN       CLOUDY    60  56  87 CALM      29.96F
$$
MNZ006-009>011-018-025>026-281200-
   North Central Minnesota

CITY           SKY/WX    TMP DP  RH WIND       PRES   REMARKS
BAUDETTE       MOCLDY    53  47  79 E8        29.98F
FLAG ISLAND    CLOUDY    57  48  72 SE6       29.98S
INTL FALLS     CLEAR     50  46  86 SE5       30.03S
WASKISH        CLOUDY    52  48  87 CALM      29.98F
BIG FORK       PTCLDY    54  46  76 SE5       30.03S
LONGVILLE      CLOUDY    55  50  82 E3        30.01S
GRAND RAPIDS   PTCLDY    52  43  71 SE7       30.06R
CRANE LAKE     CLEAR     45  43  93 CALM      30.08S
ORR            CLEAR     50  43  76 SE3       30.03S
COOK           CLEAR     52  45  76 CALM      30.06S
WALKER         CLOUDY    58  53  81 E3        29.99F
$$
MNZ012-019>021-037-281200-
   Northeast Minnesota

CITY           SKY/WX    TMP DP  RH WIND       PRES   REMARKS
DULUTH         CLEAR     46  41  82 E13       30.10R
HIBBING        CLEAR     44  41  89 CALM      30.07R
EVELETH        CLEAR     46  41  81 NE3       30.08S
DULUTH HARBOR  CLEAR     45  41  87 NE18      30.14R
TWO HARBORS    CLEAR     48  43  81 E12       30.11R
SILVER BAY     CLEAR     46  39  76 NE10G16   30.13R
GRAND MARAIS     N/A     47  39  74 NE12      30.16S
G MARAIS ARPRT CLEAR     41  36  81 NE7       30.15F
$$
MNZ029>031-032-039>041-046>048-054>057-064-281200-
   West Central Minnesota

CITY           SKY/WX    TMP DP  RH WIND       PRES   REMARKS
FERGUS FALLS   CLOUDY    64  54  68 SE5       29.96S
WHEATON        CLOUDY    61  54  77 S3        29.97S
MORRIS         MOCLDY    63  54  72 S8        29.96S
ALEXANDRIA     CLOUDY    66  50  56 S12       30.00S
ELBOW LAKE     CLOUDY    64  53  68 S7G16     29.97R
WADENA         CLOUDY    63  54  72 SE5       29.97S
GLENWOOD       CLOUDY    61  52  72 S8        30.01S
APPLETON       PTCLDY    64  50  59 S7        29.97S
BENSON         PTCLDY    61  52  72 S5        29.99S
ORTONVILLE     MOCLDY    63  52  67 S3        29.97R
MADISON        MOCLDY    64  50  59 S8        29.98S
WILLMAR        FAIR      59  54  82 SE3       30.02S
$$
MNZ033>034-036-042>043-049>051-058-059-281200-
   Central Minnesota

CITY           SKY/WX    TMP DP  RH WIND       PRES   REMARKS
ST CLOUD       PTCLDY    56  54  93 SE6       30.02R
SAUK CENTRE    FAIR      61  54  77 S6        30.01R
PAYNESVILLE    MOCLDY    59  51  75 SE5       30.02S
AITKIN         PTCLDY    54  46  76 E6        30.02S
PINE RIVER     MOCLDY    57  54  88 E8        30.03F
BRAINERD       MOCLDY    60  53  77 VRB3      30.01S
STAPLES        CLOUDY    59  52  77 E5        29.98F
LONG PRAIRIE   HAZE      61  52  72 S6        30.01R VSB 3/4
LITTLE FALLS   MOCLDY    61  52  72 SE5       30.01R
LITCHFIELD     PTCLDY    63  57  82 CALM      30.03S
BUFFALO          N/A     61  53  74 SE3       30.04S HAZE
MAPLE LAKE     PTCLDY    60  56  87 CALM      30.04R
$$
MNZ037-044-045-052-053-281200-
   East Central Minnesota

CITY           SKY/WX    TMP DP  RH WIND       PRES   REMARKS
PRINCETON      CLEAR     55  54  94 CALM      30.03R FOG
MORA           PTCLDY    52  48  87 E3        30.06S
CAMBRIDGE      MOCLDY    55  48  76 CALM      30.03R
RUSH CITY      CLEAR     55  53  95 NE3       30.05R
MOOSE LAKE     FAIR      46  41  81 NE7       30.06S
HINCKLEY       FAIR      50  46  87 CALM      30.07R
CLOQUET        CLEAR     45  39  81 E12G18    30.10R
MCGREGOR       PTCLDY    50  45  81 E5        30.06S
$$
MNZ071>073-080-081-089-090-097-098-281200-
   Southwest Minnesota

CITY           SKY/WX    TMP DP  RH WIND       PRES   REMARKS
MONTEVIDEO     PTCLDY    63  52  67 SW6       30.00S
GRANITE FALLS  PTCLDY    56  51  81 CALM      30.02R
CANBY          MOCLDY    68  49  50 SW12      30.00S
MARSHALL       MOCLDY    64  48  55 SW14      30.01R
REDWOOD FALLS  CLEAR     60  52  74 S9        30.02R
OLIVIA         CLEAR     57  48  72 S5        30.01S
PIPESTONE      CLOUDY    61  50  67 S7        30.04R
WINDOM         CLEAR     63  50  63 CALM      30.06R
WORTHINGTON    CLEAR     61  48  63 S10       30.06S
JACKSON        CLEAR     57  52  82 S7        30.07S
TRACY          PTCLDY    66  51  59 SW13      30.03R
SLAYTON        PTCLDY    61  50  67 CALM      30.05S
$$
MNZ065>067-074>077-082>085-091>093-281200-
   South Central Minnesota

CITY           SKY/WX    TMP DP  RH WIND       PRES   REMARKS
MANKATO        CLEAR     61  54  77 S9        30.06S
NEW ULM        CLEAR     57  54  88 S6        30.04S
ST JAMES       CLEAR     61  55  82 SE7       30.06S
FAIRMONT       CLEAR     57  48  72 S8        30.07R
GLENCOE        CLEAR     62  56  81 CALM      30.04R
FARIBAULT      CLEAR     61  55  82 S3        30.08R
OWATONNA       CLEAR     63  55  77 S9        30.08S
WASECA         CLEAR     59  54  82 S6        30.09S
ALBERT LEA     CLEAR     63  55  77 S5        30.09S
$$
MNZ078>079-086>088-094>096-281200-
   Southeast Minnesota

CITY           SKY/WX    TMP DP  RH WIND       PRES   REMARKS
ROCHESTER      CLEAR     58  54  86 S8        30.11S
RED WING       CLEAR     57  55  94 E3        30.07S
STANTON        CLEAR     63  55  74 S5        30.06S
DODGE CENTER   CLEAR     61  55  82 S9        30.10R
WINONA         CLEAR     57  57 100 CALM      30.11S FOG
AUSTIN         CLEAR     57  55  94 S3        30.10R
PRESTON        CLEAR     58  54  86 S6        30.12S
$$
ABBREVIATIONS USED IN REMARKS
   TC - TEMPERATURES IN CELSIUS
  WCI - WIND CHILL INDEX
   HX - HEAT INDEX
  VSB - VISIBILITY
$$



USA.gov is the U.S. government's official web portal to all federal, state and local government web resources and services.